Regional Weather Roundup
Issued by NWS

Home | Current Version | Previous Version | Text Only | Print | Product List | Glossary Off
Versions: 1 2 3 4 5 6 7 8 9 10 11 12 13 14 15 16 17 18 19 20 21 22 23 24 25 26 27 28 29 30 31 32 33 34 35 36 37 38 39 40 41 42 43 44 45 46 47 48 49 50

000
ASUS43 KMPX 200301
RWRMN
WEATHER ROUNDUP FOR MINNESOTA
NATIONAL WEATHER SERVICE TWIN CITIES/CHANHASSEN MN
1000 PM CDT FRI SEP 19 2014


NOTE: "FAIR" INDICATES FEW OR NO CLOUDS BELOW 12,000 FEET WITH NO
SIGNIFICANT WEATHER AND/OR OBSTRUCTIONS TO VISIBILITY. N/A MEANS
CURRENT SKY AND/OR WEATHER CONDITIONS ARE NOT AVAILABLE.

MNZ060>063-068>070-200400-
   Twin Cities Metro

CITY           SKY/WX    TMP DP  RH WIND       PRES   REMARKS
TWIN CITIES    MOCLDY    72  64  76 S6        29.67S
ST PAUL        MOCLDY    66  64  93 S6        29.67S
CRYSTAL        MOCLDY    66  63  90 CALM      29.65S FOG
BLAINE         PTCLDY    64  64 100 CALM      29.66F FOG
LAKEVILLE      MOCLDY    73  66  78 S5        29.68R
EDEN PRAIRIE   MOCLDY    69  65  86 S5        29.66F
SOUTH ST PAUL  MOCLDY    70  64  81 CALM      29.67S
LAKE ELMO      FAIR      66  64  94 S8        29.68F
$$
MNZ001>005-007-008-013>017-022>024-027-028-200400-
   Northwest Minnesota

CITY           SKY/WX    TMP DP  RH WIND       PRES   REMARKS
BEMIDJI        PTCLDY    63  61  96 S7        29.57F
HALLOCK        MOCLDY    61  57  88 NW13      29.63R
ROSEAU         LGT RAIN  61  55  82 W3        29.59R
WARROAD        CLOUDY    57  55  94 NW5       29.58R
THIEF RVR FALL MOCLDY    64  59  82 NW14      29.59R
CROOKSTON      MOCLDY    63  59  88 N15G23    29.62R
FOSSTON        PTCLDY    64  61  88 SW8       29.59R
DETROIT LAKES  PTCLDY    68  63  83 SW13      29.63S
MOORHEAD       MOCLDY    72  57  60 W13       29.62R
PARK RAPIDS    PTCLDY    64  63  96 S5        29.62S
MAHNOMEN       FAIR      66  64  90 S12       29.58S
$$
MNZ006-009>011-018-025>026-200400-
   North Central Minnesota

CITY           SKY/WX    TMP DP  RH WIND       PRES   REMARKS
BAUDETTE       RAIN      61  59  93 NW9       29.55S FOG
FLAG ISLAND    CLOUDY    61  61 100 W5        29.55S
INTL FALLS     CLOUDY    61  60  97 SE6       29.55F FOG
WASKISH        MOCLDY    64  63  94 CALM      29.55R
BIG FORK       CLOUDY    63  61  94 S7        29.59F FOG
LONGVILLE      MOCLDY    63  63 100 S5        29.62S FOG
GRAND RAPIDS   CLOUDY    63  61  94 S6        29.62F
CRANE LAKE     CLOUDY    59  57  94 CALM      29.60F FOG
ORR            CLOUDY    61  57  88 SE3       29.57F
COOK           MOCLDY    61  61 100 S3        29.60F
WALKER         FAIR      64  63  94 SW10      29.60S
$$
MNZ012-019>021-037-200400-
   Northeast Minnesota

CITY           SKY/WX    TMP DP  RH WIND       PRES   REMARKS
DULUTH         CLOUDY    63  61  93 W6        29.64S FOG
ELY            CLOUDY    61  57  88 SW6       29.62F
HIBBING        CLOUDY    63  60  90 S5        29.62F
EVELETH        CLOUDY    61  61 100 SW5       29.63F FOG
DULUTH HARBOR  CLEAR     61  57  88 S5        29.63F FOG
TWO HARBORS    CLOUDY    61  55  82 CALM      29.61F HAZE
SILVER BAY     PTCLDY    63  63 100 SW3       29.60F
GRAND MARAIS     N/A     53  51  93 W3        29.61S
G MARAIS ARPRT CLOUDY    57  55  94 SW5       29.64S FOG
$$
MNZ029>031-032-039>041-046>048-054>057-064-200400-
   West Central Minnesota

CITY           SKY/WX    TMP DP  RH WIND       PRES   REMARKS
FERGUS FALLS   PTCLDY    66  63  88 SW7       29.65R
WHEATON        CLEAR     66  63  88 SW8       29.68R
MORRIS         CLEAR     68  64  88 SW8       29.66S
ALEXANDRIA     CLEAR     66  64  93 SW8       29.68S
ELBOW LAKE     FAIR      65  63  94 SW9       29.65S
WADENA         PTCLDY    63  61  94 SW6       29.63F FOG
GLENWOOD       CLEAR     64  64 100 SW8       29.69S
APPLETON       CLEAR     68  63  83 SW6       29.67S
BENSON         CLEAR     64  64 100 SW5       29.67F
ORTONVILLE     CLEAR     68  63  83 W5        29.68S
MADISON        CLEAR     70  64  83 W5        29.68F
WILLMAR        FAIR      66  63  88 W7        29.69F
$$
MNZ033>034-036-042>043-049>051-058-059-200400-
   Central Minnesota

CITY           SKY/WX    TMP DP  RH WIND       PRES   REMARKS
ST CLOUD       FOG       61  59  93 CALM      29.66S VSB 1/4
SAUK CENTRE    FOG       60  60  99 CALM      29.67S VSB 1
PAYNESVILLE    CLEAR     60  60 100 SW3       29.68S FOG
AITKIN         HAZE      63  57  82 CALM      29.63S VSB 1/2
PINE RIVER     MOCLDY    61  61 100 CALM      29.67S FOG
BRAINERD       FOG       60  60 100 S5        29.65S VSB 1/4
STAPLES        CLEAR     61  61 100 S5        29.64S FOG
LONG PRAIRIE   FAIR      61  61 100 S5        29.67S FOG
LITTLE FALLS   FOG       59  59 100 CALM      29.66S VSB 1/4
LITCHFIELD     PTCLDY    70  68  94 CALM      29.68F
BUFFALO        FOG       64  62  93 CALM      29.67F VSB 1/2
MAPLE LAKE     PTCLDY    62  61  98 CALM      29.67F FOG
$$
MNZ037-044-045-052-053-200400-
   East Central Minnesota

CITY           SKY/WX    TMP DP  RH WIND       PRES   REMARKS
PRINCETON      CLOUDY    61  59  94 S1        29.66S VSB 1/4
MORA             N/A     59  57  94 CALM      29.67S FOG
CAMBRIDGE      HAZE      63  55  77 CALM      29.64S VSB 1/2
RUSH CITY        N/A     59  58  96 CALM      29.66S FOG
MOOSE LAKE     FOG       55  55 100 CALM      29.63S VSB 1/4
HINCKLEY       FOG       55  55 100 CALM      29.65S VSB<1/4
CLOQUET        CLOUDY    63  61  94 W3        29.64F FOG
MCGREGOR       CLOUDY    63  61  94 CALM      29.65S
$$
MNZ071>073-080-081-089-090-097-098-200400-
   Southwest Minnesota

CITY           SKY/WX    TMP DP  RH WIND       PRES   REMARKS
MONTEVIDEO     PTCLDY    72  64  78 W5        29.69S
GRANITE FALLS  PTCLDY    68  66  92 SW6       29.71S
CANBY          PTCLDY    70  64  82 SW3       29.70F
MARSHALL       MOCLDY    72  64  78 SW8       29.70S
REDWOOD FALLS  MOCLDY    72  67  84 SW7       29.69S
OLIVIA         PTCLDY    70  64  83 SW6       29.69S
PIPESTONE      CLOUDY    72  57  60 W3        29.73F
WINDOM         RAIN      73  66  78 NW9       29.72F
WORTHINGTON    CLOUDY    73  66  78 W7        29.72F
JACKSON        PTCLDY    73  66  78 NW5       29.73F
TRACY          CLOUDY    74  67  81 CALM      29.72S
SLAYTON        LGT RAIN  72  57  59 CALM      29.73F
$$
MNZ065>067-074>077-082>085-091>093-200400-
   South Central Minnesota

CITY           SKY/WX    TMP DP  RH WIND       PRES   REMARKS
MANKATO        MOCLDY    73  64  73 S12       29.71R
NEW ULM        MOCLDY    70  70 100 W5        29.69S
ST JAMES       MOCLDY    77  68  73 S10       29.71F
FAIRMONT       PTCLDY    73  59  60 S10       29.72F
GLENCOE        MOCLDY    72  65  77 SW6       29.67F
FARIBAULT      PTCLDY    79  63  57 S8        29.71F
OWATONNA       LGT RAIN  75  66  73 S13G22    29.73R
WASECA         HVY RAIN  72  63  73 SW15      29.77R
ALBERT LEA     PTCLDY    72  66  83 S10G18    29.75F
$$
MNZ078>079-086>088-094>096-200400-
   Southeast Minnesota

CITY           SKY/WX    TMP DP  RH WIND       PRES   REMARKS
ROCHESTER      PTCLDY    69  62  78 S17G29    29.77R
RED WING       MOCLDY    73  66  78 SW8G17    29.70S
STANTON        PTCLDY    75  66  73 S8        29.68S
DODGE CENTER   PTCLDY    70  64  83 S20G26    29.75S
WINONA         PTCLDY    72  61  68 SW12G25   29.75F
AUSTIN         MOCLDY    68  63  83 S13G18    29.77S
PRESTON        PTCLDY    66  64  91 S13G23    29.80S
$$
ABBREVIATIONS USED IN REMARKS
   TC - TEMPERATURES IN CELSIUS
  WCI - WIND CHILL INDEX
   HX - HEAT INDEX
  VSB - VISIBILITY
$$



USA.gov is the U.S. government's official web portal to all federal, state and local government web resources and services.